Time,TemperatureF,DewpointF,PressureIn,WindDirection,WindDirectionDegrees,WindSpeedMPH,WindSpeedGustMPH,Humidity,HourlyPrecipIn,Conditions,Clouds,dailyrainin,SolarRadiationWatts/m^2,SoftwareType,DateUTC
2013-04-01 00:02:00,45.0,18.0,-100.00,East,87,0.0,4.0,34,-99.99,,,0.00,0.000000,,2013-04-01 06:02:00,
2013-04-01 01:02:00,43.0,21.0,-100.00,East,100,2.0,3.0,41,-99.99,,,0.00,0.000000,,2013-04-01 07:02:00,
2013-04-01 02:02:00,40.0,20.0,-100.00,East,81,1.0,4.0,45,-99.99,,,0.00,0.000000,,2013-04-01 08:02:00,
2013-04-01 03:02:00,38.0,22.0,-100.00,East,92,3.0,4.0,51,-99.99,,,0.00,0.000000,,2013-04-01 09:02:00,
2013-04-01 03:12:00,38.0,22.0,-100.00,East,92,3.0,4.0,51,-99.99,,,0.00,0.000000,,2013-04-01 09:12:00,
2013-04-01 03:22:00,38.0,22.0,-100.00,East,92,3.0,4.0,51,-99.99,,,0.00,0.000000,,2013-04-01 09:22:00,
2013-04-01 04:03:00,35.0,21.0,-100.00,ENE,71,4.0,11.0,57,-99.99,,,0.00,0.000000,,2013-04-01 10:03:00,
2013-04-01 04:12:00,35.0,21.0,-100.00,ENE,71,4.0,11.0,57,-99.99,,,0.00,0.000000,,2013-04-01 10:12:00,
2013-04-01 04:22:00,35.0,21.0,-100.00,ENE,71,4.0,11.0,57,-99.99,,,0.00,0.000000,,2013-04-01 10:22:00,
2013-04-01 05:02:00,36.0,22.0,-100.00,North,4,2.0,5.0,56,-99.99,,,0.00,0.000000,,2013-04-01 11:02:00,
2013-04-01 06:02:00,34.0,22.0,-100.00,East,97,3.0,3.0,62,-99.99,,,0.00,0.000000,,2013-04-01 12:02:00,
2013-04-01 07:02:00,33.0,22.0,-100.00,East,84,3.0,6.0,63,-99.99,,,0.00,0.000000,,2013-04-01 13:02:00,
2013-04-01 08:03:00,31.0,21.0,-100.00,ESE,105,2.0,4.0,67,-99.99,,,0.00,2.000000,,2013-04-01 14:03:00,
2013-04-01 08:12:00,31.0,21.0,-100.00,ESE,105,2.0,4.0,67,-99.99,,,0.00,2.000000,,2013-04-01 14:12:00,
2013-04-01 08:22:00,31.0,21.0,-100.00,ESE,105,2.0,4.0,67,-99.99,,,0.00,2.000000,,2013-04-01 14:22:00,
2013-04-01 08:32:00,31.0,21.0,-100.00,ESE,105,2.0,4.0,67,-99.99,,,0.00,2.000000,,2013-04-01 14:32:00,
2013-04-01 09:02:00,35.0,23.0,-100.00,East,95,3.0,5.0,62,0.00,,,0.00,63.000000,,2013-04-01 15:02:00,
2013-04-01 10:02:00,37.0,24.0,-100.00,East,98,5.0,7.0,58,-99.99,,,0.00,262.000000,,2013-04-01 16:02:00,
2013-04-01 10:12:00,37.0,24.0,-100.00,East,98,5.0,7.0,58,-99.99,,,0.00,262.000000,,2013-04-01 16:12:00,
2013-04-01 10:22:00,37.0,24.0,-100.00,East,98,5.0,7.0,58,-99.99,,,0.00,262.000000,,2013-04-01 16:22:00,
2013-04-01 10:32:00,37.0,24.0,-100.00,East,98,5.0,7.0,58,-99.99,,,0.00,262.000000,,2013-04-01 16:32:00,
2013-04-01 12:02:00,49.0,26.0,-100.00,WSW,245,2.0,6.0,41,-99.99,,,0.00,599.000000,,2013-04-01 18:02:00,
2013-04-01 12:12:00,49.0,26.0,-100.00,WSW,245,2.0,6.0,41,-99.99,,,0.00,599.000000,,2013-04-01 18:12:00,
2013-04-01 12:22:00,49.0,26.0,-100.00,WSW,245,2.0,6.0,41,-99.99,,,0.00,599.000000,,2013-04-01 18:22:00,
2013-04-01 12:32:00,49.0,26.0,-100.00,WSW,245,2.0,6.0,41,-99.99,,,0.00,599.000000,,2013-04-01 18:32:00,
2013-04-01 13:03:00,54.0,26.0,-100.00,West,270,3.0,7.0,34,0.00,,,0.00,711.000000,,2013-04-01 19:03:00,
2013-04-01 13:12:00,54.0,26.0,-100.00,West,270,3.0,7.0,34,0.00,,,0.00,711.000000,,2013-04-01 19:12:00,
2013-04-01 13:22:00,54.0,26.0,-100.00,West,270,3.0,7.0,34,0.00,,,0.00,711.000000,,2013-04-01 19:22:00,
2013-04-01 13:32:00,54.0,26.0,-100.00,West,270,3.0,7.0,34,0.00,,,0.00,711.000000,,2013-04-01 19:32:00,
2013-04-01 14:02:00,61.0,27.0,-100.00,NW,324,2.0,7.0,27,0.00,,,0.00,786.000000,,2013-04-01 20:02:00,
2013-04-01 14:12:00,61.0,27.0,-100.00,NW,324,2.0,7.0,27,0.00,,,0.00,786.000000,,2013-04-01 20:12:00,
2013-04-01 14:22:00,61.0,27.0,-100.00,NW,324,2.0,7.0,27,0.00,,,0.00,786.000000,,2013-04-01 20:22:00,
2013-04-01 14:32:00,61.0,27.0,-100.00,NW,324,2.0,7.0,27,0.00,,,0.00,786.000000,,2013-04-01 20:32:00,
2013-04-01 15:02:00,63.0,24.0,-100.00,NW,317,4.0,7.0,22,0.00,,,0.00,755.000000,,2013-04-01 21:02:00,
2013-04-01 15:11:00,63.0,24.0,-100.00,NW,317,4.0,7.0,22,0.00,,,0.00,755.000000,,2013-04-01 21:11:00,
2013-04-01 15:22:00,63.0,24.0,-100.00,NW,317,4.0,7.0,22,0.00,,,0.00,755.000000,,2013-04-01 21:22:00,
2013-04-01 15:32:00,63.0,24.0,-100.00,NW,317,4.0,7.0,22,0.00,,,0.00,755.000000,,2013-04-01 21:32:00,
2013-04-01 16:02:00,63.0,21.0,-100.00,NW,314,6.0,11.0,20,0.00,,,-99.99,609.000000,,2013-04-01 22:02:00,
2013-04-01 16:12:00,63.0,21.0,-100.00,NW,314,6.0,11.0,20,0.00,,,-99.99,609.000000,,2013-04-01 22:12:00,
2013-04-01 16:22:00,63.0,21.0,-100.00,NW,314,6.0,11.0,20,0.00,,,-99.99,609.000000,,2013-04-01 22:22:00,
2013-04-01 16:32:00,63.0,21.0,-100.00,NW,314,6.0,11.0,20,0.00,,,-99.99,609.000000,,2013-04-01 22:32:00,
2013-04-01 17:02:00,64.0,22.0,-100.00,NNW,331,4.0,11.0,20,0.00,,,0.00,568.000000,,2013-04-01 23:02:00,
2013-04-01 17:12:00,64.0,22.0,-100.00,NNW,331,4.0,11.0,20,0.00,,,0.00,568.000000,,2013-04-01 23:12:00,
2013-04-01 17:22:00,64.0,22.0,-100.00,NNW,331,4.0,11.0,20,0.00,,,0.00,568.000000,,2013-04-01 23:22:00,
2013-04-01 17:32:00,64.0,22.0,-100.00,NNW,331,4.0,11.0,20,0.00,,,0.00,568.000000,,2013-04-01 23:32:00,
2013-04-01 18:02:00,64.0,22.0,-100.00,NNW,332,5.0,12.0,20,0.00,,,0.00,416.000000,,2013-04-02 00:02:00,
2013-04-01 18:12:00,64.0,22.0,-100.00,NNW,332,5.0,12.0,20,0.00,,,0.00,416.000000,,2013-04-02 00:12:00,
2013-04-01 18:22:00,64.0,22.0,-100.00,NNW,332,5.0,12.0,20,0.00,,,0.00,416.000000,,2013-04-02 00:22:00,
2013-04-01 18:32:00,64.0,22.0,-100.00,NNW,332,5.0,12.0,20,0.00,,,0.00,416.000000,,2013-04-02 00:32:00,
2013-04-01 19:02:00,61.0,23.0,-100.00,WNW,301,3.0,11.0,23,0.00,,,0.00,204.000000,,2013-04-02 01:02:00,
2013-04-01 19:12:00,61.0,23.0,-100.00,WNW,301,3.0,11.0,23,0.00,,,0.00,204.000000,,2013-04-02 01:12:00,
2013-04-01 19:22:00,61.0,23.0,-100.00,WNW,301,3.0,11.0,23,0.00,,,0.00,204.000000,,2013-04-02 01:22:00,
2013-04-01 19:32:00,61.0,23.0,-100.00,WNW,301,3.0,11.0,23,0.00,,,0.00,204.000000,,2013-04-02 01:32:00,
2013-04-01 20:02:00,58.0,28.0,-100.00,NW,323,6.0,16.0,32,0.00,,,0.00,129.000000,,2013-04-02 02:02:00,
2013-04-01 20:12:00,58.0,28.0,-100.00,NW,323,6.0,16.0,32,0.00,,,0.00,129.000000,,2013-04-02 02:12:00,
2013-04-01 20:22:00,58.0,28.0,-100.00,NW,323,6.0,16.0,32,0.00,,,0.00,129.000000,,2013-04-02 02:22:00,
2013-04-01 20:32:00,58.0,28.0,-100.00,NW,323,6.0,16.0,32,0.00,,,0.00,129.000000,,2013-04-02 02:32:00,
2013-04-01 21:02:00,55.0,29.0,-100.00,NW,310,3.0,10.0,36,0.00,,,0.00,14.000000,,2013-04-02 03:02:00,
2013-04-01 21:12:00,55.0,29.0,-100.00,NW,310,3.0,10.0,36,0.00,,,0.00,14.000000,,2013-04-02 03:12:00,
2013-04-01 21:22:00,55.0,29.0,-100.00,NW,310,3.0,10.0,36,0.00,,,0.00,14.000000,,2013-04-02 03:22:00,
2013-04-01 21:33:00,55.0,29.0,-100.00,NW,310,3.0,10.0,36,0.00,,,0.00,14.000000,,2013-04-02 03:33:00,
2013-04-01 22:02:00,52.0,28.0,-100.00,NW,318,3.0,8.0,40,0.00,,,0.00,0.000000,,2013-04-02 04:02:00,
2013-04-01 22:13:00,52.0,28.0,-100.00,NW,318,3.0,8.0,40,0.00,,,0.00,0.000000,,2013-04-02 04:13:00,
2013-04-01 22:22:00,52.0,28.0,-100.00,NW,318,3.0,8.0,40,0.00,,,0.00,0.000000,,2013-04-02 04:22:00,
2013-04-01 22:32:00,52.0,28.0,-100.00,NW,318,3.0,8.0,40,0.00,,,0.00,0.000000,,2013-04-02 04:32:00,
2013-04-01 23:02:00,49.0,29.0,-100.00,NW,316,2.0,7.0,45,0.00,,,0.00,0.000000,,2013-04-02 05:02:00,
2013-04-01 23:12:00,49.0,29.0,-100.00,NW,316,2.0,7.0,45,0.00,,,0.00,0.000000,,2013-04-02 05:12:00,
2013-04-01 23:22:00,49.0,29.0,-100.00,NW,316,2.0,7.0,45,0.00,,,0.00,0.000000,,2013-04-02 05:22:00,